"datetime","temp","dp","rain_mm","uv","solar","mb","wind_mph","gust_mph","windchill","rh"
"2022-01-31 00:00:00",7.8,7.0,0.0,0.0,0,1018.5,1,2,"",95
"2022-01-31 00:01:00",7.8,7.0,0.0,0.0,0,1018.5,1,3,"",95
"2022-01-31 00:02:00",7.8,7.0,0.0,0.0,0,1018.4,1,3,"",95
"2022-01-31 00:03:00",7.8,7.0,0.0,0.0,0,1018.3,2,3,"",95
"2022-01-31 00:04:00",7.8,7.0,0.0,0.0,0,1018.4,2,4,6.8,95
"2022-01-31 00:05:00",7.9,7.1,0.0,0.0,0,1018.4,1,2,"",95
"2022-01-31 00:06:00",7.9,7.1,0.0,0.0,0,1018.5,2,3,"",95
"2022-01-31 00:07:00",7.8,7.0,0.0,0.0,0,1018.5,1,3,"",95
"2022-01-31 00:08:00",7.8,7.0,0.0,0.0,0,1018.6,1,2,"",95
"2022-01-31 00:09:00",7.8,7.0,0.0,0.0,0,1018.5,1,2,"",95
"2022-01-31 00:10:00",7.8,7.0,0.0,0.0,0,1018.5,1,2,"",95
"2022-01-31 00:11:00",7.9,7.1,0.0,0.0,0,1018.6,2,3,"",95
"2022-01-31 00:12:00",7.9,7.1,0.0,0.0,0,1018.5,1,3,"",95
"2022-01-31 00:13:00",7.8,7.0,0.0,0.0,0,1018.6,2,3,"",95
"2022-01-31 00:14:00",7.8,7.0,0.0,0.0,0,1018.6,2,3,"",95
"2022-01-31 00:15:00",7.8,7.0,0.0,0.0,0,1018.6,2,6,6.1,95
"2022-01-31 00:16:00",7.8,7.0,0.0,0.0,0,1018.6,1,3,"",95
"2022-01-31 00:17:00",7.8,7.0,0.0,0.0,0,1018.6,3,4,6.8,95
"2022-01-31 00:18:00",7.8,6.9,0.0,0.0,0,1018.7,3,5,6.4,94
"2022-01-31 00:19:00",7.8,6.9,0.0,0.0,0,1018.7,2,5,6.4,94
"2022-01-31 00:20:00",7.8,6.9,0.0,0.0,0,1018.6,2,3,"",94
"2022-01-31 00:21:00",7.8,6.9,0.0,0.0,0,1018.7,3,6,6.1,94
"2022-01-31 00:22:00",7.8,6.9,0.0,0.0,0,1018.8,1,3,"",94
"2022-01-31 00:23:00",7.8,6.9,0.0,0.0,0,1018.8,2,3,"",94
"2022-01-31 00:24:00",7.8,6.9,0.0,0.0,0,1018.8,2,3,"",94
"2022-01-31 00:25:00",7.8,6.9,0.0,0.0,0,1018.7,1,4,6.8,94
"2022-01-31 00:26:00",7.8,6.9,0.0,0.0,0,1018.7,1,3,"",94
"2022-01-31 00:27:00",7.8,6.9,0.0,0.0,0,1018.7,2,5,6.4,94
"2022-01-31 00:28:00",7.7,6.8,0.0,0.0,0,1018.7,2,4,6.8,94
"2022-01-31 00:29:00",7.7,6.8,0.0,0.0,0,1018.7,1,3,"",94
"2022-01-31 00:30:00",7.7,6.8,0.0,0.0,0,1018.7,2,3,"",94
"2022-01-31 00:31:00",7.7,6.8,0.0,0.0,0,1018.8,2,3,"",94
"2022-01-31 00:32:00",7.7,6.8,0.0,0.0,0,1018.8,2,3,"",94
"2022-01-31 00:33:00",7.7,6.8,0.0,0.0,0,1018.8,3,5,6.3,94
"2022-01-31 00:34:00",7.7,6.8,0.0,0.0,0,1018.8,2,4,6.7,94
"2022-01-31 00:35:00",7.7,6.6,0.0,0.0,0,1018.8,2,5,6.2,93
"2022-01-31 00:36:00",7.6,6.5,0.0,0.0,0,1018.8,3,5,6.2,93
"2022-01-31 00:37:00",7.6,6.5,0.0,0.0,0,1018.7,2,4,6.6,93
"2022-01-31 00:38:00",7.6,6.5,0.0,0.0,0,1018.7,1,3,"",93
"2022-01-31 00:39:00",7.5,6.4,0.0,0.0,0,1018.7,2,4,6.6,93
"2022-01-31 00:40:00",7.5,6.4,0.0,0.0,0,1018.7,3,8,5.1,93
"2022-01-31 00:41:00",7.5,6.3,0.0,0.0,0,1018.7,2,3,"",92
"2022-01-31 00:42:00",7.4,6.2,0.0,0.0,0,1018.7,3,4,6.4,92
"2022-01-31 00:43:00",7.4,6.2,0.0,0.0,0,1018.7,2,4,6.4,92
"2022-01-31 00:44:00",7.4,6.2,0.0,0.0,0,1018.7,1,3,"",92
"2022-01-31 00:45:00",7.4,6.0,0.0,0.0,0,1018.7,2,4,6.4,91
"2022-01-31 00:46:00",7.4,6.0,0.0,0.0,0,1018.6,2,4,6.4,91
"2022-01-31 00:47:00",7.3,5.9,0.0,0.0,0,1018.7,1,4,6.2,91
"2022-01-31 00:48:00",7.3,5.9,0.0,0.0,0,1018.7,1,2,"",91
"2022-01-31 00:49:00",7.3,5.8,0.0,0.0,0,1018.8,2,4,6.2,90
"2022-01-31 00:50:00",7.3,5.8,0.0,0.0,0,1018.8,2,3,"",90
"2022-01-31 00:51:00",7.3,5.8,0.0,0.0,0,1018.8,1,3,"",90
"2022-01-31 00:52:00",7.2,5.7,0.0,0.0,0,1018.8,2,4,6.1,90
"2022-01-31 00:53:00",7.2,5.5,0.0,0.0,0,1018.8,2,5,5.7,89
"2022-01-31 00:54:00",7.1,5.4,0.0,0.0,0,1018.9,2,4,6.1,89
"2022-01-31 00:55:00",7.1,5.2,0.0,0.0,0,1018.9,1,2,"",88
"2022-01-31 00:56:00",7.1,5.2,0.0,0.0,0,1018.9,3,4,6.0,88
"2022-01-31 00:57:00",7.1,5.2,0.0,0.0,0,1019.0,1,2,"",88
"2022-01-31 00:58:00",7.1,5.2,0.0,0.0,0,1019.0,2,4,5.9,88
"2022-01-31 00:59:00",7.0,5.1,0.0,0.0,0,1019.0,2,4,5.9,88
"2022-01-31 01:00:00",7.0,5.1,0.0,0.0,0,1019.1,1,3,"",88
"2022-01-31 01:01:00",6.9,5.0,0.0,0.0,0,1019.1,2,3,"",88
"2022-01-31 01:02:00",6.9,5.0,0.0,0.0,0,1019.1,2,4,5.8,88
"2022-01-31 01:03:00",6.9,5.0,0.0,0.0,0,1019.0,2,3,"",88
"2022-01-31 01:04:00",6.9,4.9,0.0,0.0,0,1019.1,2,4,5.8,87
"2022-01-31 01:05:00",6.9,4.9,0.0,0.0,0,1019.0,1,1,"",87
"2022-01-31 01:06:00",6.9,4.9,0.0,0.0,0,1019.0,1,3,"",87
"2022-01-31 01:07:00",6.8,4.8,0.0,0.0,0,1019.0,3,4,5.7,87
"2022-01-31 01:08:00",6.8,4.8,0.0,0.0,0,1019.0,1,3,"",87
"2022-01-31 01:09:00",6.8,4.8,0.0,0.0,0,1019.0,1,2,"",87
"2022-01-31 01:10:00",6.8,4.8,0.0,0.0,0,1019.0,3,4,5.7,87
"2022-01-31 01:11:00",6.8,4.8,0.0,0.0,0,1019.1,1,3,"",87
"2022-01-31 01:12:00",6.8,4.6,0.0,0.0,0,1019.1,3,7,4.6,86
"2022-01-31 01:13:00",6.8,4.6,0.0,0.0,0,1019.0,2,4,5.7,86
"2022-01-31 01:14:00",6.8,4.6,0.0,0.0,0,1019.0,1,3,"",86
"2022-01-31 01:15:00",6.7,4.5,0.0,0.0,0,1019.1,1,2,"",86
"2022-01-31 01:16:00",6.7,4.5,0.0,0.0,0,1019.1,2,3,"",86
"2022-01-31 01:17:00",6.7,4.5,0.0,0.0,0,1019.2,2,3,"",86
"2022-01-31 01:18:00",6.7,4.5,0.0,0.0,0,1019.2,1,3,"",86
"2022-01-31 01:19:00",6.7,4.5,0.0,0.0,0,1019.1,0,1,"",86
"2022-01-31 01:20:00",6.7,4.5,0.0,0.0,0,1019.2,2,4,5.5,86
"2022-01-31 01:21:00",6.7,4.5,0.0,0.0,0,1019.1,2,4,5.5,86
"2022-01-31 01:22:00",6.6,4.4,0.0,0.0,0,1019.1,1,3,"",86
"2022-01-31 01:23:00",6.7,4.5,0.0,0.0,0,1019.0,1,2,"",86
"2022-01-31 01:24:00",6.6,4.4,0.0,0.0,0,1019.0,1,3,"",86
"2022-01-31 01:25:00",6.6,4.3,0.0,0.0,0,1018.9,3,4,5.4,85
"2022-01-31 01:26:00",6.6,4.4,0.0,0.0,0,1018.9,1,3,"",86
"2022-01-31 01:27:00",6.6,4.4,0.0,0.0,0,1018.9,1,2,"",86
"2022-01-31 01:28:00",6.6,4.4,0.0,0.0,0,1019.0,2,3,"",86
"2022-01-31 01:29:00",6.6,4.3,0.0,0.0,0,1019.0,2,6,4.6,85
"2022-01-31 01:30:00",6.6,4.3,0.0,0.0,0,1019.0,1,3,"",85
"2022-01-31 01:31:00",6.6,4.3,0.0,0.0,0,1019.1,1,2,"",85
"2022-01-31 01:32:00",6.6,4.3,0.0,0.0,0,1019.1,1,2,"",85
"2022-01-31 01:33:00",6.6,4.3,0.0,0.0,0,1019.0,1,2,"",85
"2022-01-31 01:34:00",6.6,4.3,0.0,0.0,0,1019.1,2,3,"",85
"2022-01-31 01:35:00",6.6,4.4,0.0,0.0,0,1019.1,1,2,"",86
"2022-01-31 01:36:00",6.6,4.4,0.0,0.0,0,1019.2,2,3,"",86
"2022-01-31 01:37:00",6.5,4.3,0.0,0.0,0,1019.2,1,3,"",86
"2022-01-31 01:38:00",6.5,4.3,0.0,0.0,0,1019.2,1,1,"",86
"2022-01-31 01:39:00",6.5,4.2,0.0,0.0,0,1019.2,1,2,"",85
"2022-01-31 01:40:00",6.5,4.2,0.0,0.0,0,1019.1,1,3,"",85
"2022-01-31 01:41:00",6.5,4.2,0.0,0.0,0,1019.2,2,2,"",85
"2022-01-31 01:42:00",6.4,4.1,0.0,0.0,0,1019.1,1,2,"",85
"2022-01-31 01:43:00",6.4,4.1,0.0,0.0,0,1019.2,1,2,"",85
"2022-01-31 01:44:00",6.4,4.1,0.0,0.0,0,1019.1,1,3,"",85
"2022-01-31 01:45:00",6.4,4.1,0.0,0.0,0,1019.1,1,2,"",85
"2022-01-31 01:46:00",6.4,4.1,0.0,0.0,0,1019.1,3,5,4.8,85
"2022-01-31 01:47:00",6.4,4.1,0.0,0.0,0,1019.0,2,4,5.2,85
"2022-01-31 01:48:00",6.4,4.1,0.0,0.0,0,1019.0,1,2,"",85
"2022-01-31 01:49:00",6.4,4.1,0.0,0.0,0,1019.0,2,3,"",85
"2022-01-31 01:50:00",6.4,4.1,0.0,0.0,0,1019.1,1,2,"",85
"2022-01-31 01:51:00",6.3,4.0,0.0,0.0,0,1019.1,1,3,"",85
"2022-01-31 01:52:00",6.4,4.1,0.0,0.0,0,1019.0,2,5,4.6,85
"2022-01-31 01:53:00",6.3,4.0,0.0,0.0,0,1019.0,1,3,"",85
"2022-01-31 01:54:00",6.3,4.0,0.0,0.0,0,1018.9,1,3,"",85
"2022-01-31 01:55:00",6.3,4.0,0.0,0.0,0,1018.9,1,2,"",85
"2022-01-31 01:56:00",6.3,4.0,0.0,0.0,0,1018.9,2,3,"",85
"2022-01-31 01:57:00",6.3,4.0,0.0,0.0,0,1018.9,1,3,"",85
"2022-01-31 01:58:00",6.3,4.0,0.0,0.0,0,1018.9,1,2,"",85
"2022-01-31 01:59:00",6.3,4.0,0.0,0.0,0,1019.0,2,4,5.1,85
"2022-01-31 02:00:00",6.3,4.0,0.0,0.0,0,1018.9,1,3,"",85
"2022-01-31 02:01:00",6.3,4.0,0.0,0.0,0,1018.9,2,5,4.6,85
"2022-01-31 02:02:00",6.3,4.0,0.0,0.0,0,1018.9,1,2,"",85
"2022-01-31 02:03:00",6.2,3.9,0.0,0.0,0,1019.0,2,5,4.6,85
"2022-01-31 02:04:00",6.2,3.9,0.0,0.0,0,1018.9,1,2,"",85
"2022-01-31 02:05:00",6.2,3.9,0.0,0.0,0,1019.0,1,2,"",85
"2022-01-31 02:06:00",6.2,4.0,0.0,0.0,0,1019.0,2,4,5.0,86
"2022-01-31 02:07:00",6.2,4.0,0.0,0.0,0,1019.0,1,2,"",86
"2022-01-31 02:08:00",6.2,4.0,0.0,0.0,0,1019.0,1,2,"",86
"2022-01-31 02:09:00",6.2,4.0,0.0,0.0,0,1019.0,3,6,4.2,86
"2022-01-31 02:10:00",6.2,4.0,0.0,0.0,0,1019.0,1,3,"",86
"2022-01-31 02:11:00",6.2,4.0,0.0,0.0,0,1019.1,1,3,"",86
"2022-01-31 02:12:00",6.2,4.0,0.0,0.0,0,1019.1,1,3,"",86
"2022-01-31 02:13:00",6.2,4.0,0.0,0.0,0,1019.1,1,3,"",86
"2022-01-31 02:14:00",6.2,4.0,0.0,0.0,0,1019.0,1,3,"",86
"2022-01-31 02:15:00",6.2,4.0,0.0,0.0,0,1019.0,1,2,"",86
"2022-01-31 02:16:00",6.1,3.9,0.0,0.0,0,1019.0,2,4,5.0,86
"2022-01-31 02:17:00",6.1,3.9,0.0,0.0,0,1019.0,2,2,"",86
"2022-01-31 02:18:00",6.1,3.9,0.0,0.0,0,1018.9,3,5,4.4,86
"2022-01-31 02:19:00",6.1,3.9,0.0,0.0,0,1019.0,2,4,4.9,86
"2022-01-31 02:20:00",6.1,3.9,0.0,0.0,0,1019.0,0,2,"",86
"2022-01-31 02:21:00",6.1,3.9,0.0,0.0,0,1018.9,2,4,4.9,86
"2022-01-31 02:22:00",6.1,3.9,0.0,0.0,0,1018.9,2,3,"",86
"2022-01-31 02:23:00",6.1,3.9,0.0,0.0,0,1018.9,2,6,4.0,86
"2022-01-31 02:24:00",6.1,3.9,0.0,0.0,0,1018.9,1,2,"",86
"2022-01-31 02:25:00",6.1,3.9,0.0,0.0,0,1018.9,2,4,4.9,86
"2022-01-31 02:26:00",6.1,3.9,0.0,0.0,0,1018.9,2,4,4.9,86
"2022-01-31 02:27:00",6.1,3.9,0.0,0.0,0,1018.9,1,3,"",86
"2022-01-31 02:28:00",6.1,3.8,0.0,0.0,0,1019.0,1,2,"",85
"2022-01-31 02:29:00",6.1,3.8,0.0,0.0,0,1019.0,2,2,"",85
"2022-01-31 02:30:00",6.1,3.8,0.0,0.0,0,1019.0,2,3,"",85
"2022-01-31 02:31:00",6.0,3.7,0.0,0.0,0,1018.9,1,2,"",85
"2022-01-31 02:32:00",6.1,3.8,0.0,0.0,0,1019.0,1,2,"",85
"2022-01-31 02:33:00",6.0,3.7,0.0,0.0,0,1019.1,1,2,"",85
"2022-01-31 02:34:00",6.0,3.7,0.0,0.0,0,1019.1,2,3,"",85
"2022-01-31 02:35:00",6.0,3.7,0.0,0.0,0,1019.1,2,2,"",85
"2022-01-31 02:36:00",6.0,3.7,0.0,0.0,0,1019.2,2,5,4.3,85
"2022-01-31 02:37:00",6.0,3.7,0.0,0.0,0,1019.1,2,5,4.3,85
"2022-01-31 02:38:00",5.9,3.6,0.0,0.0,0,1019.1,0,2,"",85
"2022-01-31 02:39:00",5.9,3.6,0.0,0.0,0,1019.2,1,2,"",85
"2022-01-31 02:40:00",5.9,3.6,0.0,0.0,0,1019.2,2,4,4.6,85
"2022-01-31 02:41:00",5.9,3.6,0.0,0.0,0,1019.3,1,2,"",85
"2022-01-31 02:42:00",6.0,3.7,0.0,0.0,0,1019.2,2,5,4.3,85
"2022-01-31 02:43:00",5.9,3.6,0.0,0.0,0,1019.1,1,2,"",85
"2022-01-31 02:44:00",6.0,3.7,0.0,0.0,0,1019.2,1,2,"",85
"2022-01-31 02:45:00",5.9,3.6,0.0,0.0,0,1019.2,1,2,"",85
"2022-01-31 02:46:00",6.0,3.7,0.0,0.0,0,1019.1,2,2,"",85
"2022-01-31 02:47:00",5.9,3.6,0.0,0.0,0,1019.1,0,1,"",85
"2022-01-31 02:48:00",6.0,3.7,0.0,0.0,0,1019.1,1,3,"",85
"2022-01-31 02:49:00",6.0,3.7,0.0,0.0,0,1019.1,2,5,4.2,85
"2022-01-31 02:50:00",5.9,3.6,0.0,0.0,0,1019.0,1,3,"",85
"2022-01-31 02:51:00",6.0,3.7,0.0,0.0,0,1019.1,1,3,"",85
"2022-01-31 02:52:00",5.9,3.6,0.0,0.0,0,1019.0,3,4,4.7,85
"2022-01-31 02:53:00",6.0,3.7,0.0,0.0,0,1019.1,2,4,4.7,85
"2022-01-31 02:54:00",5.9,3.6,0.0,0.0,0,1019.0,1,2,"",85
"2022-01-31 02:55:00",6.0,3.7,0.0,0.0,0,1019.1,2,5,4.3,85
"2022-01-31 02:56:00",6.0,3.7,0.0,0.0,0,1019.1,2,3,"",85
"2022-01-31 02:57:00",6.0,3.7,0.0,0.0,0,1019.1,2,3,"",85
"2022-01-31 02:58:00",6.0,3.7,0.0,0.0,0,1019.0,1,3,"",85
"2022-01-31 02:59:00",6.1,3.8,0.0,0.0,0,1019.1,1,3,"",85
"2022-01-31 03:00:00",6.0,3.8,0.0,0.0,0,1019.0,1,3,"",86
"2022-01-31 03:01:00",6.1,3.8,0.0,0.0,0,1019.1,2,5,4.4,85
"2022-01-31 03:02:00",6.1,3.8,0.0,0.0,0,1019.1,1,2,"",85
"2022-01-31 03:03:00",6.1,3.8,0.0,0.0,0,1019.1,2,3,"",85
"2022-01-31 03:04:00",6.1,3.9,0.0,0.0,0,1019.1,1,2,"",86
"2022-01-31 03:05:00",6.1,3.9,0.0,0.0,0,1019.1,1,5,4.4,86
"2022-01-31 03:06:00",6.1,3.9,0.0,0.0,0,1019.1,1,3,"",86
"2022-01-31 03:07:00",6.1,3.9,0.0,0.0,0,1019.1,2,3,"",86
"2022-01-31 03:08:00",6.1,3.9,0.0,0.0,0,1019.1,2,4,4.9,86
"2022-01-31 03:09:00",6.1,3.9,0.0,0.0,0,1019.2,2,3,"",86
"2022-01-31 03:10:00",6.2,4.0,0.0,0.0,0,1019.2,2,3,"",86
"2022-01-31 03:11:00",6.2,4.0,0.0,0.0,0,1019.2,3,8,3.4,86
"2022-01-31 03:12:00",6.2,3.9,0.0,0.0,0,1019.1,3,7,3.8,85
"2022-01-31 03:13:00",6.2,3.9,0.0,0.0,0,1019.2,2,5,4.5,85
"2022-01-31 03:14:00",6.2,3.9,0.0,0.0,0,1019.1,2,4,5.0,85
"2022-01-31 03:15:00",6.2,3.9,0.0,0.0,0,1019.1,2,4,5.0,85
"2022-01-31 03:16:00",6.2,3.9,0.0,0.0,0,1019.2,1,2,"",85
"2022-01-31 03:17:00",6.2,3.9,0.0,0.0,0,1019.2,1,4,5.0,85
"2022-01-31 03:18:00",6.3,4.0,0.0,0.0,0,1019.1,1,3,"",85
"2022-01-31 03:19:00",6.3,4.0,0.0,0.0,0,1019.1,1,3,"",85
"2022-01-31 03:20:00",6.2,3.9,0.0,0.0,0,1019.1,1,2,"",85
"2022-01-31 03:21:00",6.3,4.0,0.0,0.0,0,1019.0,1,2,"",85
"2022-01-31 03:22:00",6.3,4.0,0.0,0.0,0,1019.1,1,2,"",85
"2022-01-31 03:23:00",6.3,4.0,0.0,0.0,0,1019.1,1,3,"",85
"2022-01-31 03:24:00",6.3,4.1,0.0,0.0,0,1019.1,1,2,"",86
"2022-01-31 03:25:00",6.3,4.1,0.0,0.0,0,1019.1,1,2,"",86
"2022-01-31 03:26:00",6.3,4.0,0.0,0.0,0,1019.1,2,3,"",85
"2022-01-31 03:27:00",6.3,4.0,0.0,0.0,0,1019.1,1,2,"",85
"2022-01-31 03:28:00",6.3,4.0,0.0,0.0,0,1019.1,3,8,3.7,85
"2022-01-31 03:29:00",6.3,4.0,0.0,0.0,0,1019.0,1,2,"",85
"2022-01-31 03:30:00",6.3,4.0,0.0,0.0,0,1019.1,1,3,"",85
"2022-01-31 03:31:00",6.3,4.0,0.0,0.0,0,1019.1,1,2,"",85
"2022-01-31 03:32:00",6.3,4.0,0.0,0.0,0,1019.1,1,2,"",85
"2022-01-31 03:33:00",6.3,4.0,0.0,0.0,0,1019.1,1,3,"",85
"2022-01-31 03:34:00",6.3,4.0,0.0,0.0,0,1019.0,1,2,"",85
"2022-01-31 03:35:00",6.3,4.0,0.0,0.0,0,1019.0,3,7,4.0,85
"2022-01-31 03:36:00",6.3,4.0,0.0,0.0,0,1019.1,2,6,4.3,85
"2022-01-31 03:37:00",6.3,4.0,0.0,0.0,0,1019.0,1,4,5.1,85
"2022-01-31 03:38:00",6.2,3.9,0.0,0.0,0,1019.1,1,2,"",85
"2022-01-31 03:39:00",6.2,3.7,0.0,0.0,0,1019.1,1,2,"",84
"2022-01-31 03:40:00",6.2,3.7,0.0,0.0,0,1019.1,1,2,"",84
"2022-01-31 03:41:00",6.2,3.7,0.0,0.0,0,1019.0,1,2,"",84
"2022-01-31 03:42:00",6.2,3.7,0.0,0.0,0,1019.1,0,1,"",84
"2022-01-31 03:43:00",6.2,3.7,0.0,0.0,0,1019.0,1,3,"",84
"2022-01-31 03:44:00",6.2,3.7,0.0,0.0,0,1019.1,2,3,"",84
"2022-01-31 03:45:00",6.2,3.7,0.0,0.0,0,1019.2,1,3,"",84
"2022-01-31 03:46:00",6.2,3.7,0.0,0.0,0,1019.1,3,4,5.0,84
"2022-01-31 03:47:00",6.2,3.7,0.0,0.0,0,1019.2,2,3,"",84
"2022-01-31 03:48:00",6.2,3.7,0.0,0.0,0,1019.2,1,2,"",84
"2022-01-31 03:49:00",6.2,3.7,0.0,0.0,0,1019.3,2,3,"",84
"2022-01-31 03:50:00",6.2,3.7,0.0,0.0,0,1019.3,0,1,"",84
"2022-01-31 03:51:00",6.2,3.7,0.0,0.0,0,1019.2,1,3,"",84
"2022-01-31 03:52:00",6.2,3.7,0.0,0.0,0,1019.2,2,4,5.0,84
"2022-01-31 03:53:00",6.2,3.7,0.0,0.0,0,1019.2,1,4,5.0,84
"2022-01-31 03:54:00",6.2,3.7,0.0,0.0,0,1019.2,0,1,"",84
"2022-01-31 03:55:00",6.2,3.7,0.0,0.0,0,1019.2,1,4,5.0,84
"2022-01-31 03:56:00",6.2,3.7,0.0,0.0,0,1019.2,1,3,"",84
"2022-01-31 03:57:00",6.2,3.7,0.0,0.0,0,1019.2,1,2,"",84
"2022-01-31 03:58:00",6.2,3.7,0.0,0.0,0,1019.3,1,2,"",84
"2022-01-31 03:59:00",6.2,3.7,0.0,0.0,0,1019.2,1,3,"",84
"2022-01-31 04:00:00",6.2,3.7,0.0,0.0,0,1019.2,2,4,5.0,84
"2022-01-31 04:01:00",6.3,3.8,0.0,0.0,0,1019.2,2,5,4.5,84
"2022-01-31 04:02:00",6.2,3.7,0.0,0.0,0,1019.2,2,3,"",84
"2022-01-31 04:03:00",6.2,3.7,0.0,0.0,0,1019.2,1,2,"",84
"2022-01-31 04:04:00",6.2,3.5,0.0,0.0,0,1019.2,2,2,"",83
"2022-01-31 04:05:00",6.2,3.7,0.0,0.0,0,1019.2,1,3,"",84
"2022-01-31 04:06:00",6.2,3.7,0.0,0.0,0,1019.2,1,2,"",84
"2022-01-31 04:07:00",6.2,3.7,0.0,0.0,0,1019.3,1,2,"",84
"2022-01-31 04:08:00",6.2,3.5,0.0,0.0,0,1019.2,1,2,"",83
"2022-01-31 04:09:00",6.2,3.5,0.0,0.0,0,1019.3,1,2,"",83
"2022-01-31 04:10:00",6.2,3.5,0.0,0.0,0,1019.3,3,4,5.0,83
"2022-01-31 04:11:00",6.2,3.5,0.0,0.0,0,1019.2,1,2,"",83
"2022-01-31 04:12:00",6.2,3.5,0.0,0.0,0,1019.3,1,3,"",83
"2022-01-31 04:13:00",6.2,3.5,0.0,0.0,0,1019.2,2,5,4.5,83
"2022-01-31 04:14:00",6.3,3.6,0.0,0.0,0,1019.3,2,3,"",83
"2022-01-31 04:15:00",6.2,3.5,0.0,0.0,0,1019.2,3,6,4.3,83
"2022-01-31 04:16:00",6.3,3.6,0.0,0.0,0,1019.3,1,5,4.6,83
"2022-01-31 04:17:00",6.3,3.6,0.0,0.0,0,1019.3,2,5,4.5,83
"2022-01-31 04:18:00",6.3,3.6,0.0,0.0,0,1019.3,1,4,5.1,83
"2022-01-31 04:19:00",6.3,3.6,0.0,0.0,0,1019.2,2,3,"",83
"2022-01-31 04:20:00",6.3,3.8,0.0,0.0,0,1019.3,2,5,4.6,84
"2022-01-31 04:21:00",6.3,3.6,0.0,0.0,0,1019.2,0,2,"",83
"2022-01-31 04:22:00",6.3,3.8,0.0,0.0,0,1019.2,2,3,"",84
"2022-01-31 04:23:00",6.3,3.6,0.0,0.0,0,1019.2,2,4,5.1,83
"2022-01-31 04:24:00",6.3,3.8,0.0,0.0,0,1019.3,0,2,"",84
"2022-01-31 04:25:00",6.3,3.8,0.0,0.0,0,1019.3,1,2,"",84
"2022-01-31 04:26:00",6.3,3.8,0.0,0.0,0,1019.3,1,2,"",84
"2022-01-31 04:27:00",6.3,3.8,0.0,0.0,0,1019.3,1,2,"",84
"2022-01-31 04:28:00",6.3,3.6,0.0,0.0,0,1019.4,2,3,"",83
"2022-01-31 04:29:00",6.3,3.8,0.0,0.0,0,1019.3,2,3,"",84
"2022-01-31 04:30:00",6.3,3.8,0.0,0.0,0,1019.3,2,4,5.1,84
"2022-01-31 04:31:00",6.3,3.8,0.0,0.0,0,1019.3,2,3,"",84
"2022-01-31 04:32:00",6.3,3.6,0.0,0.0,0,1019.3,2,4,5.1,83
"2022-01-31 04:33:00",6.3,3.6,0.0,0.0,0,1019.3,1,2,"",83
"2022-01-31 04:34:00",6.3,3.6,0.0,0.0,0,1019.4,2,3,"",83
"2022-01-31 04:35:00",6.3,3.6,0.0,0.0,0,1019.3,1,2,"",83
"2022-01-31 04:36:00",6.3,3.6,0.0,0.0,0,1019.3,0,2,"",83
"2022-01-31 04:37:00",6.3,3.6,0.0,0.0,0,1019.4,1,2,"",83
"2022-01-31 04:38:00",6.3,3.6,0.0,0.0,0,1019.4,1,2,"",83
"2022-01-31 04:39:00",6.3,3.6,0.0,0.0,0,1019.4,1,2,"",83
"2022-01-31 04:40:00",6.3,3.6,0.0,0.0,0,1019.4,1,2,"",83
"2022-01-31 04:41:00",6.3,3.6,0.0,0.0,0,1019.4,1,2,"",83
"2022-01-31 04:42:00",6.3,3.6,0.0,0.0,0,1019.4,1,3,"",83
"2022-01-31 04:43:00",6.3,3.6,0.0,0.0,0,1019.4,2,4,5.1,83
"2022-01-31 04:44:00",6.3,3.6,0.0,0.0,0,1019.3,1,3,"",83
"2022-01-31 04:45:00",6.3,3.6,0.0,0.0,0,1019.3,2,3,"",83
"2022-01-31 04:46:00",6.3,3.6,0.0,0.0,0,1019.3,2,5,4.6,83
"2022-01-31 04:47:00",6.3,3.6,0.0,0.0,0,1019.3,3,5,4.6,83
"2022-01-31 04:48:00",6.3,3.6,0.0,0.0,0,1019.3,1,2,"",83
"2022-01-31 04:49:00",6.3,3.6,0.0,0.0,0,1019.3,1,2,"",83
"2022-01-31 04:50:00",6.3,3.6,0.0,0.0,0,1019.4,1,3,"",83
"2022-01-31 04:51:00",6.3,3.6,0.0,0.0,0,1019.4,2,3,"",83
"2022-01-31 04:52:00",6.3,3.6,0.0,0.0,0,1019.4,1,3,"",83
"2022-01-31 04:53:00",6.3,3.6,0.0,0.0,0,1019.5,1,2,"",83
"2022-01-31 04:54:00",6.3,3.6,0.0,0.0,0,1019.5,1,3,"",83
"2022-01-31 04:55:00",6.3,3.6,0.0,0.0,0,1019.6,1,2,"",83
"2022-01-31 04:56:00",6.3,3.6,0.0,0.0,0,1019.6,1,2,"",83
"2022-01-31 04:57:00",6.3,3.6,0.0,0.0,0,1019.6,1,2,"",83
"2022-01-31 04:58:00",6.3,3.6,0.0,0.0,0,1019.5,1,2,"",83
"2022-01-31 04:59:00",6.2,3.5,0.0,0.0,0,1019.4,1,3,"",83
"2022-01-31 05:00:00",6.2,3.5,0.0,0.0,0,1019.3,4,6,4.3,83
"2022-01-31 05:01:00",6.2,3.5,0.0,0.0,0,1019.3,1,3,"",83
"2022-01-31 05:02:00",6.2,3.5,0.0,0.0,0,1019.3,1,2,"",83
"2022-01-31 05:03:00",6.2,3.5,0.0,0.0,0,1019.3,3,7,3.8,83
"2022-01-31 05:04:00",6.2,3.5,0.0,0.0,0,1019.1,2,5,4.5,83
"2022-01-31 05:05:00",6.2,3.5,0.0,0.0,0,1019.2,2,6,4.2,83
"2022-01-31 05:06:00",6.2,3.5,0.0,0.0,0,1019.2,2,4,5.0,83
"2022-01-31 05:07:00",6.2,3.5,0.0,0.0,0,1019.2,1,3,"",83
"2022-01-31 05:08:00",6.2,3.5,0.0,0.0,0,1019.2,3,4,5.0,83
"2022-01-31 05:09:00",6.2,3.5,0.0,0.0,0,1019.2,3,6,4.2,83
"2022-01-31 05:10:00",6.2,3.5,0.0,0.0,0,1019.2,1,3,"",83
"2022-01-31 05:11:00",6.2,3.5,0.0,0.0,0,1019.2,1,3,"",83
"2022-01-31 05:12:00",6.2,3.5,0.0,0.0,0,1019.2,3,5,4.5,83
"2022-01-31 05:13:00",6.2,3.5,0.0,0.0,0,1019.1,1,3,"",83
"2022-01-31 05:14:00",6.2,3.5,0.0,0.0,0,1019.3,2,3,"",83
"2022-01-31 05:15:00",6.2,3.5,0.0,0.0,0,1019.3,1,2,"",83
"2022-01-31 05:16:00",6.2,3.5,0.0,0.0,0,1019.3,2,6,4.2,83
"2022-01-31 05:17:00",6.2,3.5,0.0,0.0,0,1019.1,3,7,3.8,83
"2022-01-31 05:18:00",6.2,3.5,0.0,0.0,0,1019.4,2,5,4.5,83
"2022-01-31 05:19:00",6.2,3.5,0.0,0.0,0,1019.4,1,3,"",83
"2022-01-31 05:20:00",6.2,3.5,0.0,0.0,0,1019.4,1,2,"",83
"2022-01-31 05:21:00",6.2,3.5,0.0,0.0,0,1019.4,0,2,"",83
"2022-01-31 05:22:00",6.2,3.5,0.0,0.0,0,1019.3,1,2,"",83
"2022-01-31 05:23:00",6.2,3.5,0.0,0.0,0,1019.3,2,4,5.0,83
"2022-01-31 05:24:00",6.2,3.5,0.0,0.0,0,1019.4,2,4,5.0,83
"2022-01-31 05:25:00",6.2,3.5,0.0,0.0,0,1019.3,2,4,5.0,83
"2022-01-31 05:26:00",6.2,3.5,0.0,0.0,0,1019.3,2,5,4.5,83
"2022-01-31 05:27:00",6.3,3.6,0.0,0.0,0,1019.2,1,1,"",83
"2022-01-31 05:28:00",6.3,3.6,0.0,0.0,0,1019.2,2,5,4.5,83
"2022-01-31 05:29:00",6.3,3.6,0.0,0.0,0,1019.2,1,2,"",83
"2022-01-31 05:30:00",6.3,3.6,0.0,0.0,0,1019.3,2,4,5.1,83
"2022-01-31 05:31:00",6.3,3.6,0.0,0.0,0,1019.3,1,3,"",83
"2022-01-31 05:32:00",6.3,3.6,0.0,0.0,0,1019.4,1,3,"",83
"2022-01-31 05:33:00",6.3,3.6,0.0,0.0,0,1019.4,2,2,"",83
"2022-01-31 05:34:00",6.3,3.6,0.0,0.0,0,1019.5,1,2,"",83
"2022-01-31 05:35:00",6.3,3.6,0.0,0.0,0,1019.5,2,4,5.1,83
"2022-01-31 05:36:00",6.3,3.6,0.0,0.0,0,1019.5,1,3,"",83
"2022-01-31 05:37:00",6.3,3.5,0.0,0.0,0,1019.4,1,3,"",82
"2022-01-31 05:38:00",6.3,3.5,0.0,0.0,0,1019.5,2,4,5.1,82
"2022-01-31 05:39:00",6.3,3.6,0.0,0.0,0,1019.5,1,3,"",83
"2022-01-31 05:40:00",6.3,3.6,0.0,0.0,0,1019.4,1,3,"",83
"2022-01-31 05:41:00",6.3,3.6,0.0,0.0,0,1019.4,1,4,5.1,83
"2022-01-31 05:42:00",6.3,3.6,0.0,0.0,0,1019.4,1,2,"",83
"2022-01-31 05:43:00",6.3,3.6,0.0,0.0,0,1019.4,1,2,"",83
"2022-01-31 05:44:00",6.3,3.5,0.0,0.0,0,1019.4,2,3,"",82
"2022-01-31 05:45:00",6.3,3.5,0.0,0.0,0,1019.4,2,4,5.1,82
"2022-01-31 05:46:00",6.3,3.5,0.0,0.0,0,1019.3,2,3,"",82
"2022-01-31 05:47:00",6.3,3.5,0.0,0.0,0,1019.3,1,2,"",82
"2022-01-31 05:48:00",6.3,3.5,0.0,0.0,0,1019.3,2,4,5.1,82
"2022-01-31 05:49:00",6.3,3.5,0.0,0.0,0,1019.2,1,2,"",82
"2022-01-31 05:50:00",6.3,3.5,0.0,0.0,0,1019.2,3,4,5.1,82
"2022-01-31 05:51:00",6.3,3.5,0.0,0.0,0,1019.4,3,6,4.3,82
"2022-01-31 05:52:00",6.3,3.5,0.0,0.0,0,1019.4,1,2,"",82
"2022-01-31 05:53:00",6.3,3.5,0.0,0.0,0,1019.4,2,4,5.1,82
"2022-01-31 05:54:00",6.3,3.5,0.0,0.0,0,1019.4,3,7,4.0,82
"2022-01-31 05:55:00",6.3,3.5,0.0,0.0,0,1019.5,1,3,"",82
"2022-01-31 05:56:00",6.3,3.5,0.0,0.0,0,1019.5,1,3,"",82
"2022-01-31 05:57:00",6.3,3.5,0.0,0.0,0,1019.4,1,3,"",82
"2022-01-31 05:58:00",6.3,3.5,0.0,0.0,0,1019.5,1,3,"",82
"2022-01-31 05:59:00",6.3,3.5,0.0,0.0,0,1019.5,2,4,5.1,82
"2022-01-31 06:00:00",6.4,3.6,0.0,0.0,0,1019.5,1,3,"",82
"2022-01-31 06:01:00",6.3,3.5,0.0,0.0,0,1019.5,2,3,"",82
"2022-01-31 06:02:00",6.3,3.5,0.0,0.0,0,1019.5,2,3,"",82
"2022-01-31 06:03:00",6.4,3.6,0.0,0.0,0,1019.5,1,3,"",82
"2022-01-31 06:04:00",6.3,3.5,0.0,0.0,0,1019.6,1,2,"",82
"2022-01-31 06:05:00",6.4,3.6,0.0,0.0,0,1019.7,1,2,"",82
"2022-01-31 06:06:00",6.4,3.6,0.0,0.0,0,1019.8,1,3,"",82
"2022-01-31 06:07:00",6.4,3.6,0.0,0.0,0,1019.8,2,4,5.2,82
"2022-01-31 06:08:00",6.4,3.6,0.0,0.0,0,1019.9,2,3,"",82
"2022-01-31 06:09:00",6.4,3.4,0.0,0.0,0,1019.9,1,2,"",81
"2022-01-31 06:10:00",6.4,3.4,0.0,0.0,0,1019.9,2,4,5.2,81
"2022-01-31 06:11:00",6.4,3.4,0.0,0.0,0,1019.9,1,2,"",81
"2022-01-31 06:12:00",6.4,3.4,0.0,0.0,0,1019.9,1,3,"",81
"2022-01-31 06:13:00",6.4,3.4,0.0,0.0,0,1019.8,3,10,3.3,81
"2022-01-31 06:14:00",6.4,3.4,0.0,0.0,0,1019.9,2,2,"",81
"2022-01-31 06:15:00",6.3,3.3,0.0,0.0,0,1019.8,1,2,"",81
"2022-01-31 06:16:00",6.4,3.4,0.0,0.0,0,1019.8,1,2,"",81
"2022-01-31 06:17:00",6.4,3.4,0.0,0.0,0,1019.9,2,4,5.2,81
"2022-01-31 06:18:00",6.3,3.3,0.0,0.0,0,1019.9,2,4,5.1,81
"2022-01-31 06:19:00",6.4,3.4,0.0,0.0,0,1019.8,2,4,5.2,81
"2022-01-31 06:20:00",6.3,3.3,0.0,0.0,0,1019.8,1,2,"",81
"2022-01-31 06:21:00",6.3,3.3,0.0,0.0,0,1019.8,1,3,"",81
"2022-01-31 06:22:00",6.3,3.3,0.0,0.0,0,1019.7,2,5,4.6,81
"2022-01-31 06:23:00",6.3,3.1,0.0,0.0,0,1019.7,2,4,5.1,80
"2022-01-31 06:24:00",6.3,3.1,0.0,0.0,0,1019.8,1,3,"",80
"2022-01-31 06:25:00",6.3,3.1,0.0,0.0,0,1019.9,1,3,"",80
"2022-01-31 06:26:00",6.3,3.1,0.0,0.0,0,1019.8,1,2,"",80
"2022-01-31 06:27:00",6.3,3.1,0.0,0.0,0,1019.9,1,3,"",80
"2022-01-31 06:28:00",6.3,3.1,0.0,0.0,0,1019.8,1,2,"",80
"2022-01-31 06:29:00",6.3,3.1,0.0,0.0,0,1019.8,1,5,4.6,80
"2022-01-31 06:30:00",6.3,3.1,0.0,0.0,0,1019.9,2,4,5.1,80
"2022-01-31 06:31:00",6.3,3.1,0.0,0.0,0,1019.9,1,2,"",80
"2022-01-31 06:32:00",6.3,3.1,0.0,0.0,0,1019.8,2,4,5.1,80
"2022-01-31 06:33:00",6.3,3.1,0.0,0.0,0,1019.9,1,3,"",80
"2022-01-31 06:34:00",6.2,3.0,0.0,0.0,0,1019.8,1,2,"",80
"2022-01-31 06:35:00",6.2,3.0,0.0,0.0,0,1019.8,1,3,"",80
"2022-01-31 06:36:00",6.2,3.0,0.0,0.0,0,1019.8,1,3,"",80
"2022-01-31 06:37:00",6.2,3.0,0.0,0.0,0,1019.8,1,2,"",80
"2022-01-31 06:38:00",6.2,3.0,0.0,0.0,0,1019.8,1,2,"",80
"2022-01-31 06:39:00",6.2,3.0,0.0,0.0,0,1019.8,1,2,"",80
"2022-01-31 06:40:00",6.2,3.0,0.0,0.0,0,1019.8,2,3,"",80
"2022-01-31 06:41:00",6.2,3.0,0.0,0.0,0,1019.9,1,2,"",80
"2022-01-31 06:42:00",6.2,3.0,0.0,0.0,0,1019.9,2,3,"",80
"2022-01-31 06:43:00",6.1,2.9,0.0,0.0,0,1019.8,1,2,"",80
"2022-01-31 06:44:00",6.1,2.9,0.0,0.0,0,1019.9,2,5,4.4,80
"2022-01-31 06:45:00",6.1,2.9,0.0,0.0,0,1020.0,1,2,"",80
"2022-01-31 06:46:00",6.1,2.9,0.0,0.0,0,1020.0,1,2,"",80
"2022-01-31 06:47:00",6.1,2.9,0.0,0.0,0,1019.9,1,2,"",80
"2022-01-31 06:48:00",6.1,2.9,0.0,0.0,0,1020.0,1,2,"",80
"2022-01-31 06:49:00",6.1,2.9,0.0,0.0,0,1020.0,2,3,"",80
"2022-01-31 06:50:00",6.1,2.9,0.0,0.0,0,1020.0,2,3,"",80
"2022-01-31 06:51:00",6.1,2.9,0.0,0.0,0,1020.0,1,4,4.9,80
"2022-01-31 06:52:00",6.1,2.9,0.0,0.0,0,1020.0,1,2,"",80
"2022-01-31 06:53:00",6.1,2.9,0.0,0.0,0,1020.0,1,4,4.9,80
"2022-01-31 06:54:00",6.1,2.9,0.0,0.0,0,1020.0,1,3,"",80
"2022-01-31 06:55:00",6.1,2.9,0.0,0.0,0,1020.0,1,2,"",80
"2022-01-31 06:56:00",6.0,2.8,0.0,0.0,0,1020.0,1,3,"",80